sat.trackr.live / text

‹ back to catalog

IXPE

NORAD 49954 · 2021-121A

PAYLOAD ACTIVE UNKNOWN

§ Identity

Operator
Country
US
Launch date
2021-12-09
Launch site
AFETR
Launch vehicle
Mass (kg)
RCS (m²)

Purposes: science

External: N2YO · Heavens-Above · Gunter

§ Orbital elements

Epoch: 2026-05-25T06:00:02.000160Z

Period
95.36 min
Inclination
0.2285°
Eccentricity
0.0007356
Mean motion
15.10005219 rev/d
Perigee alt
531.1 km
Apogee alt
541.3 km
Semi-major
6,914.3 km
B*
6.2118e-4
RAAN
130.5113°
Arg perigee
94.3120°
Mean anomaly
96.3920°
Rev number
543

§ Raw data

IXPE1 49954U 21121A   26145.25002315  .00011336  00000+0  62118-3 0  99982 49954   0.2285 130.5113 0007356  94.3120  96.3920 15.10005219  5439

JSON: /api/v1/satellites/49954 · /tle

For live sub-satellite position, see the globe view (requires WebGL).

§ Visibility from observer

Set your observer location to see the next 7 days of passes ≥ 10°. The values pass through the URL so the page stays shareable.

No JS? Fill the form by hand. The geolocation button needs JavaScript.